Year,Month,Day,Hour,Minute,Value (Times are PST for temperature in C)
2016,06,16,00,00,10.00
2016,06,16,00,01,10.00
2016,06,16,00,02,10.00
2016,06,16,00,03,9.90
2016,06,16,00,04,9.90
2016,06,16,00,05,10.00
2016,06,16,00,06,10.00
2016,06,16,00,07,10.00
2016,06,16,00,08,10.10
2016,06,16,00,09,10.10
2016,06,16,00,10,10.10
2016,06,16,00,11,10.20
2016,06,16,00,12,10.20
2016,06,16,00,13,10.20
2016,06,16,00,14,10.20
2016,06,16,00,15,10.20
2016,06,16,00,16,10.20
2016,06,16,00,17,10.20
2016,06,16,00,18,10.30
2016,06,16,00,19,10.30
2016,06,16,00,20,10.20
2016,06,16,00,21,10.20
2016,06,16,00,22,10.20
2016,06,16,00,23,10.20
2016,06,16,00,24,10.20
2016,06,16,00,25,10.20
2016,06,16,00,26,10.10
2016,06,16,00,27,10.00
2016,06,16,00,28,9.90
2016,06,16,00,29,9.80
2016,06,16,00,30,9.70
2016,06,16,00,31,9.70
2016,06,16,00,32,9.60
2016,06,16,00,33,9.60
2016,06,16,00,34,9.50
2016,06,16,00,35,9.50
2016,06,16,00,36,9.50
2016,06,16,00,37,9.40
2016,06,16,00,38,9.40
2016,06,16,00,39,9.40
2016,06,16,00,40,9.40
2016,06,16,00,41,9.40
2016,06,16,00,42,9.40
2016,06,16,00,43,9.40
2016,06,16,00,44,9.40
2016,06,16,00,45,9.40
2016,06,16,00,46,9.40
2016,06,16,00,47,9.40
2016,06,16,00,48,9.40
2016,06,16,00,49,9.40
2016,06,16,00,50,9.40
2016,06,16,00,51,9.40
2016,06,16,00,52,9.40
2016,06,16,00,53,9.40
2016,06,16,00,54,9.40
2016,06,16,00,55,9.30
2016,06,16,00,56,9.30
2016,06,16,00,57,9.20
2016,06,16,00,58,9.20
2016,06,16,00,59,9.20
2016,06,16,01,00,9.10
2016,06,16,01,01,9.10
2016,06,16,01,02,9.10
2016,06,16,01,03,9.10
2016,06,16,01,04,9.10
2016,06,16,01,05,9.00
2016,06,16,01,06,9.00
2016,06,16,01,07,8.90
2016,06,16,01,08,8.90
2016,06,16,01,09,8.80
2016,06,16,01,10,8.80
2016,06,16,01,11,8.80
2016,06,16,01,12,8.70
2016,06,16,01,13,8.70
2016,06,16,01,14,8.70
2016,06,16,01,15,8.60
2016,06,16,01,16,8.60
2016,06,16,01,17,8.60
2016,06,16,01,18,8.50
2016,06,16,01,19,8.50
2016,06,16,01,20,8.40
2016,06,16,01,21,8.40
2016,06,16,01,22,8.40
2016,06,16,01,23,8.40
2016,06,16,01,24,8.30
2016,06,16,01,25,8.30
2016,06,16,01,26,8.30
2016,06,16,01,27,8.30
2016,06,16,01,28,8.20
2016,06,16,01,29,8.20
2016,06,16,01,30,8.20
2016,06,16,01,31,8.10
2016,06,16,01,32,8.10
2016,06,16,01,33,8.10
2016,06,16,01,34,8.00
2016,06,16,01,35,8.00
2016,06,16,01,36,7.90
2016,06,16,01,37,7.90
2016,06,16,01,38,7.90
2016,06,16,01,39,7.90
2016,06,16,01,40,7.80
2016,06,16,01,41,7.80
2016,06,16,01,42,7.80
2016,06,16,01,43,7.80
2016,06,16,01,44,7.80
2016,06,16,01,45,7.80
2016,06,16,01,46,7.70
2016,06,16,01,47,7.70
2016,06,16,01,48,7.70
2016,06,16,01,49,7.70
2016,06,16,01,50,7.70
2016,06,16,01,51,7.70
2016,06,16,01,52,7.70
2016,06,16,01,53,7.70
2016,06,16,01,54,7.60
2016,06,16,01,55,7.60
2016,06,16,01,56,7.60
2016,06,16,01,57,7.60
2016,06,16,01,58,7.60
2016,06,16,01,59,7.60
2016,06,16,02,00,7.60
2016,06,16,02,01,7.60
2016,06,16,02,02,7.60
2016,06,16,02,03,7.60
2016,06,16,02,04,7.60
2016,06,16,02,05,7.60
2016,06,16,02,06,7.60
2016,06,16,02,07,7.60
2016,06,16,02,08,7.60
2016,06,16,02,09,7.60
2016,06,16,02,10,7.60
2016,06,16,02,11,7.60
2016,06,16,02,12,7.60
2016,06,16,02,13,7.60
2016,06,16,02,14,7.60
2016,06,16,02,15,7.60
2016,06,16,02,16,7.60
2016,06,16,02,17,7.60
2016,06,16,02,18,7.50
2016,06,16,02,19,7.50
2016,06,16,02,20,7.50
2016,06,16,02,21,7.50
2016,06,16,02,22,7.50
2016,06,16,02,23,7.40
2016,06,16,02,24,7.40
2016,06,16,02,25,7.40
2016,06,16,02,26,7.40
2016,06,16,02,27,7.40
2016,06,16,02,28,7.30
2016,06,16,02,29,7.30
2016,06,16,02,30,7.30
2016,06,16,02,31,7.30
2016,06,16,02,32,7.30
2016,06,16,02,33,7.20
2016,06,16,02,34,7.20
2016,06,16,02,35,7.20
2016,06,16,02,36,7.20
2016,06,16,02,37,7.20
2016,06,16,02,38,7.20
2016,06,16,02,39,7.20
2016,06,16,02,40,7.20
2016,06,16,02,41,7.20
2016,06,16,02,42,7.10
2016,06,16,02,43,7.10
2016,06,16,02,44,7.10
2016,06,16,02,45,7.10
2016,06,16,02,46,7.10
2016,06,16,02,47,7.10
2016,06,16,02,48,7.10
2016,06,16,02,49,7.10
2016,06,16,02,50,7.10
2016,06,16,02,51,7.10
2016,06,16,02,52,7.00
2016,06,16,02,53,7.00
2016,06,16,02,54,6.90
2016,06,16,02,55,6.90
2016,06,16,02,56,6.90
2016,06,16,02,57,6.90
2016,06,16,02,58,6.90
2016,06,16,02,59,6.80
2016,06,16,03,00,6.80
2016,06,16,03,01,6.80
2016,06,16,03,02,6.80
2016,06,16,03,03,6.80
2016,06,16,03,04,6.80
2016,06,16,03,05,6.80
2016,06,16,03,06,6.80
2016,06,16,03,07,6.80
2016,06,16,03,08,6.80
2016,06,16,03,09,6.80
2016,06,16,03,10,6.80
2016,06,16,03,11,6.80
2016,06,16,03,12,6.80
2016,06,16,03,13,6.80
2016,06,16,03,14,6.80
2016,06,16,03,15,6.70
2016,06,16,03,16,6.80
2016,06,16,03,17,6.70
2016,06,16,03,18,6.70
2016,06,16,03,19,6.70
2016,06,16,03,20,6.70
2016,06,16,03,21,6.70
2016,06,16,03,22,6.70
2016,06,16,03,23,6.70
2016,06,16,03,24,6.70
2016,06,16,03,25,6.70
2016,06,16,03,26,6.70
2016,06,16,03,27,6.70
2016,06,16,03,28,6.70
2016,06,16,03,29,6.60
2016,06,16,03,30,6.60
2016,06,16,03,31,6.60
2016,06,16,03,32,6.60
2016,06,16,03,33,6.60
2016,06,16,03,34,6.60
2016,06,16,03,35,6.50
2016,06,16,03,36,6.50
2016,06,16,03,37,6.40
2016,06,16,03,38,6.40
2016,06,16,03,39,6.40
2016,06,16,03,40,6.40
2016,06,16,03,41,6.30
2016,06,16,03,42,6.30
2016,06,16,03,43,6.30
2016,06,16,03,44,6.30
2016,06,16,03,45,6.30
2016,06,16,03,46,6.30
2016,06,16,03,47,6.30
2016,06,16,03,48,6.30
2016,06,16,03,49,6.20
2016,06,16,03,50,6.20
2016,06,16,03,51,6.20
2016,06,16,03,52,6.20
2016,06,16,03,53,6.20
2016,06,16,03,54,6.20
2016,06,16,03,55,6.20
2016,06,16,03,56,6.20
2016,06,16,03,57,6.20
2016,06,16,03,58,6.20
2016,06,16,03,59,6.20
2016,06,16,04,00,6.20
2016,06,16,04,01,6.20
2016,06,16,04,02,6.20
2016,06,16,04,03,6.20
2016,06,16,04,04,6.20
2016,06,16,04,05,6.20
2016,06,16,04,06,6.20
2016,06,16,04,07,6.20
2016,06,16,04,08,6.20
2016,06,16,04,09,6.20
2016,06,16,04,10,6.20
2016,06,16,04,11,6.20
2016,06,16,04,12,6.20
2016,06,16,04,13,6.20
2016,06,16,04,14,6.20
2016,06,16,04,15,6.20
2016,06,16,04,16,6.20
2016,06,16,04,17,6.20
2016,06,16,04,18,6.20
2016,06,16,04,19,6.20
2016,06,16,04,20,6.20
2016,06,16,04,21,6.20
2016,06,16,04,22,6.20
2016,06,16,04,23,6.20
2016,06,16,04,24,6.20
2016,06,16,04,25,6.20
2016,06,16,04,26,6.20
2016,06,16,04,27,6.20
2016,06,16,04,28,6.20
2016,06,16,04,29,6.20
2016,06,16,04,30,6.30
2016,06,16,04,31,6.20
2016,06,16,04,32,6.20
2016,06,16,04,33,6.20
2016,06,16,04,34,6.20
2016,06,16,04,35,6.20
2016,06,16,04,36,6.20
2016,06,16,04,37,6.20
2016,06,16,04,38,6.20
2016,06,16,04,39,6.20
2016,06,16,04,40,6.10
2016,06,16,04,41,6.10
2016,06,16,04,42,6.10
2016,06,16,04,43,6.10
2016,06,16,04,44,6.10
2016,06,16,04,45,6.10
2016,06,16,04,46,6.10
2016,06,16,04,47,6.10
2016,06,16,04,48,6.10
2016,06,16,04,49,6.10
2016,06,16,04,50,6.00
2016,06,16,04,51,6.00
2016,06,16,04,52,5.90
2016,06,16,04,53,5.90
2016,06,16,04,54,5.90
2016,06,16,04,55,5.80
2016,06,16,04,56,5.80
2016,06,16,04,57,5.80
2016,06,16,04,58,5.80
2016,06,16,04,59,5.80
2016,06,16,05,00,5.80
2016,06,16,05,01,5.80
2016,06,16,05,02,5.80
2016,06,16,05,03,5.80
2016,06,16,05,04,5.80
2016,06,16,05,05,5.80
2016,06,16,05,06,5.80
2016,06,16,05,07,5.80
2016,06,16,05,08,5.80
2016,06,16,05,09,5.80
2016,06,16,05,10,5.80
2016,06,16,05,11,5.80
2016,06,16,05,12,5.80
2016,06,16,05,13,5.80
2016,06,16,05,14,5.80
2016,06,16,05,15,5.80
2016,06,16,05,16,5.80
2016,06,16,05,17,5.80
2016,06,16,05,18,5.80
2016,06,16,05,19,5.80
2016,06,16,05,20,5.80
2016,06,16,05,21,5.70
2016,06,16,05,22,5.70
2016,06,16,05,23,5.70
2016,06,16,05,24,5.70
2016,06,16,05,25,5.70
2016,06,16,05,26,5.60
2016,06,16,05,27,5.60
2016,06,16,05,28,5.60
2016,06,16,05,29,5.60
2016,06,16,05,30,5.60
2016,06,16,05,31,5.60
2016,06,16,05,32,5.60
2016,06,16,05,33,5.60
2016,06,16,05,34,5.60
2016,06,16,05,35,5.60
2016,06,16,05,36,5.70
2016,06,16,05,37,5.70
2016,06,16,05,38,5.70
2016,06,16,05,39,5.70
2016,06,16,05,40,5.70
2016,06,16,05,41,5.70
2016,06,16,05,42,5.70
2016,06,16,05,43,5.70
2016,06,16,05,44,5.70
2016,06,16,05,45,5.80
2016,06,16,05,46,5.80
2016,06,16,05,47,5.80
2016,06,16,05,48,5.80
2016,06,16,05,49,5.80
2016,06,16,05,50,5.80
2016,06,16,05,51,5.80
2016,06,16,05,52,5.80
2016,06,16,05,53,5.90
2016,06,16,05,54,5.90
2016,06,16,05,55,5.90
2016,06,16,05,56,5.90
2016,06,16,05,57,6.00
2016,06,16,05,58,6.00
2016,06,16,05,59,6.10
2016,06,16,06,00,6.10
2016,06,16,06,01,6.20
2016,06,16,06,02,6.20
2016,06,16,06,03,6.30
2016,06,16,06,04,6.30
2016,06,16,06,05,6.30
2016,06,16,06,06,6.40
2016,06,16,06,07,6.40
2016,06,16,06,08,6.40
2016,06,16,06,09,6.50
2016,06,16,06,10,6.50
2016,06,16,06,11,6.50
2016,06,16,06,12,6.60
2016,06,16,06,13,6.60
2016,06,16,06,14,6.60
2016,06,16,06,15,6.60
2016,06,16,06,16,6.60
2016,06,16,06,17,6.60
2016,06,16,06,18,6.70
2016,06,16,06,19,6.70
2016,06,16,06,20,6.70
2016,06,16,06,21,6.70
2016,06,16,06,22,6.70
2016,06,16,06,23,6.70
2016,06,16,06,24,6.80
2016,06,16,06,25,6.80
2016,06,16,06,26,6.80
2016,06,16,06,27,6.80
2016,06,16,06,28,6.80
2016,06,16,06,29,6.80
2016,06,16,06,30,6.80
2016,06,16,06,31,6.80
2016,06,16,06,32,6.80
2016,06,16,06,33,6.90
2016,06,16,06,34,6.90
2016,06,16,06,35,7.00
2016,06,16,06,36,7.00
2016,06,16,06,37,7.10
2016,06,16,06,38,7.10
2016,06,16,06,39,7.20
2016,06,16,06,40,7.20
2016,06,16,06,41,7.30
2016,06,16,06,42,7.30
2016,06,16,06,43,7.50
2016,06,16,06,44,7.50
2016,06,16,06,45,7.60
2016,06,16,06,46,7.70
2016,06,16,06,47,7.80
2016,06,16,06,48,7.90
2016,06,16,06,49,8.10
2016,06,16,06,50,8.20
2016,06,16,06,51,8.30
2016,06,16,06,52,8.40
2016,06,16,06,53,8.50
2016,06,16,06,54,8.60
2016,06,16,06,55,8.70
2016,06,16,06,56,8.80
2016,06,16,06,57,8.80
2016,06,16,06,58,8.90
2016,06,16,06,59,9.00
2016,06,16,07,00,9.10
2016,06,16,07,01,9.20
2016,06,16,07,02,9.40
2016,06,16,07,03,9.50
2016,06,16,07,04,9.60
2016,06,16,07,05,9.80
2016,06,16,07,06,9.90
2016,06,16,07,07,10.10
2016,06,16,07,08,10.20
2016,06,16,07,09,10.30
2016,06,16,07,10,10.40
2016,06,16,07,11,10.50
2016,06,16,07,12,10.60
2016,06,16,07,13,10.70
2016,06,16,07,14,10.80
2016,06,16,07,15,10.90
2016,06,16,07,16,10.90
2016,06,16,07,17,11.00
2016,06,16,07,18,11.10
2016,06,16,07,19,11.10
2016,06,16,07,20,11.10
2016,06,16,07,21,11.00
2016,06,16,07,22,11.00
2016,06,16,07,23,11.10
2016,06,16,07,24,11.10
2016,06,16,07,25,11.20
2016,06,16,07,26,11.20
2016,06,16,07,27,11.20
2016,06,16,07,28,11.20
2016,06,16,07,29,11.20
2016,06,16,07,30,11.20
2016,06,16,07,31,11.20
2016,06,16,07,32,11.20
2016,06,16,07,33,11.20
2016,06,16,07,34,11.20
2016,06,16,07,35,11.20
2016,06,16,07,36,11.20
2016,06,16,07,37,11.20
2016,06,16,07,38,11.20
2016,06,16,07,39,11.20
2016,06,16,07,40,11.30
2016,06,16,07,41,11.30
2016,06,16,07,42,11.30
2016,06,16,07,43,11.40
2016,06,16,07,44,11.40
2016,06,16,07,45,11.40
2016,06,16,07,46,11.40
2016,06,16,07,47,11.40
2016,06,16,07,48,11.40
2016,06,16,07,49,11.40
2016,06,16,07,50,11.40
2016,06,16,07,51,11.40
2016,06,16,07,52,11.40
2016,06,16,07,53,11.40
2016,06,16,07,54,11.50
2016,06,16,07,55,11.50
2016,06,16,07,56,11.50
2016,06,16,07,57,11.60
2016,06,16,07,58,11.60
2016,06,16,07,59,11.60
2016,06,16,08,00,11.60
2016,06,16,08,01,11.70
2016,06,16,08,02,11.80
2016,06,16,08,03,11.80
2016,06,16,08,04,11.80
2016,06,16,08,05,11.80
2016,06,16,08,06,11.90
2016,06,16,08,07,11.90
2016,06,16,08,08,11.90
2016,06,16,08,09,11.90
2016,06,16,08,10,11.90
2016,06,16,08,11,11.90
2016,06,16,08,12,11.90
2016,06,16,08,13,11.90
2016,06,16,08,14,11.90
2016,06,16,08,15,11.90
2016,06,16,08,16,12.00
2016,06,16,08,17,12.00
2016,06,16,08,18,12.10
2016,06,16,08,19,12.10
2016,06,16,08,20,12.20
2016,06,16,08,21,12.20
2016,06,16,08,22,12.20
2016,06,16,08,23,12.20
2016,06,16,08,24,12.20
2016,06,16,08,25,12.30
2016,06,16,08,26,12.30
2016,06,16,08,27,12.30
2016,06,16,08,28,12.30
2016,06,16,08,29,12.30
2016,06,16,08,30,12.30
2016,06,16,08,31,12.40
2016,06,16,08,32,12.40
2016,06,16,08,33,12.40
2016,06,16,08,34,12.50
2016,06,16,08,35,12.60
2016,06,16,08,36,12.60
2016,06,16,08,37,12.70
2016,06,16,08,38,12.60
2016,06,16,08,39,12.60
2016,06,16,08,40,12.70
2016,06,16,08,41,12.70
2016,06,16,08,42,12.80
2016,06,16,08,43,12.80
2016,06,16,08,44,12.80
2016,06,16,08,45,12.90
2016,06,16,08,46,12.90
2016,06,16,08,47,12.90
2016,06,16,08,48,13.00
2016,06,16,08,49,13.10
2016,06,16,08,50,13.10
2016,06,16,08,51,13.10
2016,06,16,08,52,13.10
2016,06,16,08,53,13.10
2016,06,16,08,54,13.10
2016,06,16,08,55,13.20
2016,06,16,08,56,13.20
2016,06,16,08,57,13.20
2016,06,16,08,58,13.20
2016,06,16,08,59,13.20
2016,06,16,09,00,13.20
2016,06,16,09,01,13.30
2016,06,16,09,02,13.40
2016,06,16,09,03,13.40
2016,06,16,09,04,13.50
2016,06,16,09,05,13.50
2016,06,16,09,06,13.50
2016,06,16,09,07,13.50
2016,06,16,09,08,13.60
2016,06,16,09,09,13.60
2016,06,16,09,10,13.60
2016,06,16,09,11,13.60
2016,06,16,09,12,13.60
2016,06,16,09,13,13.70
2016,06,16,09,14,13.70
2016,06,16,09,15,13.80
2016,06,16,09,16,13.80
2016,06,16,09,17,13.90
2016,06,16,09,18,14.00
2016,06,16,09,19,14.10
2016,06,16,09,20,14.10
2016,06,16,09,21,14.00
2016,06,16,09,22,14.00
2016,06,16,09,23,14.00
2016,06,16,09,24,13.90
2016,06,16,09,25,13.80
2016,06,16,09,26,13.80
2016,06,16,09,27,13.80
2016,06,16,09,28,13.80
2016,06,16,09,29,13.80
2016,06,16,09,30,13.80
2016,06,16,09,31,13.80
2016,06,16,09,32,13.80
2016,06,16,09,33,13.80
2016,06,16,09,34,13.90
2016,06,16,09,35,13.90
2016,06,16,09,36,13.90
2016,06,16,09,37,14.00
2016,06,16,09,38,14.10
2016,06,16,09,39,14.20
2016,06,16,09,40,14.20
2016,06,16,09,41,14.30
2016,06,16,09,42,14.40
2016,06,16,09,43,14.40
2016,06,16,09,44,14.40
2016,06,16,09,45,14.40
2016,06,16,09,46,14.40
2016,06,16,09,47,14.40
2016,06,16,09,48,14.30
2016,06,16,09,49,14.30
2016,06,16,09,50,14.30
2016,06,16,09,51,14.40
2016,06,16,09,52,14.50
2016,06,16,09,53,14.50
2016,06,16,09,54,14.60
2016,06,16,09,55,14.50
2016,06,16,09,56,14.50
2016,06,16,09,57,14.60
2016,06,16,09,58,14.70
2016,06,16,09,59,14.90
2016,06,16,10,00,15.10
2016,06,16,10,01,15.20
2016,06,16,10,02,15.30
2016,06,16,10,03,15.30
2016,06,16,10,04,15.30
2016,06,16,10,05,15.30
2016,06,16,10,06,15.30
2016,06,16,10,07,15.40
2016,06,16,10,08,15.50
2016,06,16,10,09,15.50
2016,06,16,10,10,15.60
2016,06,16,10,11,15.60
2016,06,16,10,12,15.70
2016,06,16,10,13,15.60
2016,06,16,10,14,15.60
2016,06,16,10,15,15.60
2016,06,16,10,16,15.60
2016,06,16,10,17,15.40
2016,06,16,10,18,15.20
2016,06,16,10,19,15.10
2016,06,16,10,20,15.10
2016,06,16,10,21,15.20
2016,06,16,10,22,15.20
2016,06,16,10,23,15.20
2016,06,16,10,24,15.20
2016,06,16,10,25,15.00
2016,06,16,10,26,15.00
2016,06,16,10,27,15.10
2016,06,16,10,28,15.30
2016,06,16,10,29,15.20
2016,06,16,10,30,15.20
2016,06,16,10,31,15.00
2016,06,16,10,32,14.70
2016,06,16,10,33,14.60
2016,06,16,10,34,14.60
2016,06,16,10,35,14.60
2016,06,16,10,36,14.60
2016,06,16,10,37,14.60
2016,06,16,10,38,14.60
2016,06,16,10,39,14.40
2016,06,16,10,40,14.50
2016,06,16,10,41,14.70
2016,06,16,10,42,14.80
2016,06,16,10,43,14.80
2016,06,16,10,44,14.80
2016,06,16,10,45,14.90
2016,06,16,10,46,14.80
2016,06,16,10,47,14.80
2016,06,16,10,48,14.80
2016,06,16,10,49,14.80
2016,06,16,10,50,14.80
2016,06,16,10,51,14.80
2016,06,16,10,52,14.80
2016,06,16,10,53,14.90
2016,06,16,10,54,15.00
2016,06,16,10,55,15.10
2016,06,16,10,56,15.20
2016,06,16,10,57,15.20
2016,06,16,10,58,15.20
2016,06,16,10,59,15.30
2016,06,16,11,00,15.30
2016,06,16,11,01,15.30
2016,06,16,11,02,15.30
2016,06,16,11,03,15.30
2016,06,16,11,04,15.40
2016,06,16,11,05,15.30
2016,06,16,11,06,15.30
2016,06,16,11,07,15.30
2016,06,16,11,08,15.40
2016,06,16,11,09,15.60
2016,06,16,11,10,15.60
2016,06,16,11,11,15.70
2016,06,16,11,12,15.70
2016,06,16,11,13,15.60
2016,06,16,11,14,15.70
2016,06,16,11,15,15.60
2016,06,16,11,16,15.60
2016,06,16,11,17,15.60
2016,06,16,11,18,15.70
2016,06,16,11,19,15.70
2016,06,16,11,20,15.80
2016,06,16,11,21,15.80
2016,06,16,11,22,15.80
2016,06,16,11,23,15.80
2016,06,16,11,24,15.80
2016,06,16,11,25,15.80
2016,06,16,11,26,15.80
2016,06,16,11,27,15.90
2016,06,16,11,28,15.90
2016,06,16,11,29,15.90
2016,06,16,11,30,16.00
2016,06,16,11,31,16.20
2016,06,16,11,32,16.30
2016,06,16,11,33,16.30
2016,06,16,11,34,16.30
2016,06,16,11,35,16.40
2016,06,16,11,36,16.40
2016,06,16,11,37,16.20
2016,06,16,11,38,16.10
2016,06,16,11,39,16.10
2016,06,16,11,40,16.20
2016,06,16,11,41,16.20
2016,06,16,11,42,16.30
2016,06,16,11,43,16.10
2016,06,16,11,44,16.00
2016,06,16,11,45,15.80
2016,06,16,11,46,15.70
2016,06,16,11,47,15.60
2016,06,16,11,48,15.60
2016,06,16,11,49,15.80
2016,06,16,11,50,15.80
2016,06,16,11,51,15.80
2016,06,16,11,52,15.80
2016,06,16,11,53,15.80
2016,06,16,11,54,16.00
2016,06,16,11,55,16.10
2016,06,16,11,56,16.30
2016,06,16,11,57,16.20
2016,06,16,11,58,16.30
2016,06,16,11,59,16.30
2016,06,16,12,00,16.10
2016,06,16,12,01,15.70
2016,06,16,12,02,15.60
2016,06,16,12,03,15.60
2016,06,16,12,04,15.60
2016,06,16,12,05,15.60
2016,06,16,12,06,15.60
2016,06,16,12,07,15.70
2016,06,16,12,08,15.60
2016,06,16,12,09,15.50
2016,06,16,12,10,15.40
2016,06,16,12,11,15.30
2016,06,16,12,12,15.30
2016,06,16,12,13,15.40
2016,06,16,12,14,15.50
2016,06,16,12,15,15.60
2016,06,16,12,16,15.70
2016,06,16,12,17,15.80
2016,06,16,12,18,15.80
2016,06,16,12,19,15.80
2016,06,16,12,20,15.80
2016,06,16,12,21,15.80
2016,06,16,12,22,15.90
2016,06,16,12,23,15.90
2016,06,16,12,24,15.70
2016,06,16,12,25,15.60
2016,06,16,12,26,15.60
2016,06,16,12,27,15.50
2016,06,16,12,28,15.50
2016,06,16,12,29,15.60
2016,06,16,12,30,15.80
2016,06,16,12,31,16.00
2016,06,16,12,32,16.00
2016,06,16,12,33,16.10
2016,06,16,12,34,16.10
2016,06,16,12,35,16.20
2016,06,16,12,36,16.20
2016,06,16,12,37,16.30
2016,06,16,12,38,16.20
2016,06,16,12,39,16.10
2016,06,16,12,40,16.10
2016,06,16,12,41,16.00
2016,06,16,12,42,16.00
2016,06,16,12,43,16.10
2016,06,16,12,44,16.20
2016,06,16,12,45,16.20
2016,06,16,12,46,16.20
2016,06,16,12,47,16.10
2016,06,16,12,48,15.80
2016,06,16,12,49,15.60
2016,06,16,12,50,15.70
2016,06,16,12,51,15.80
2016,06,16,12,52,15.90
2016,06,16,12,53,15.80
2016,06,16,12,54,15.70
2016,06,16,12,55,15.80
2016,06,16,12,56,15.80
2016,06,16,12,57,15.90
2016,06,16,12,58,16.10
2016,06,16,12,59,16.00
2016,06,16,13,00,16.00
2016,06,16,13,01,16.00
2016,06,16,13,02,16.00
2016,06,16,13,03,15.90
2016,06,16,13,04,15.90
2016,06,16,13,05,15.80
2016,06,16,13,06,15.90
2016,06,16,13,07,16.10
2016,06,16,13,08,16.20
2016,06,16,13,09,16.10
2016,06,16,13,10,16.10
2016,06,16,13,11,16.10
2016,06,16,13,12,16.00
2016,06,16,13,13,15.90
2016,06,16,13,14,15.90
2016,06,16,13,15,15.80
2016,06,16,13,16,15.70
2016,06,16,13,17,15.70
2016,06,16,13,18,15.70
2016,06,16,13,19,15.80
2016,06,16,13,20,15.90
2016,06,16,13,21,15.90
2016,06,16,13,22,15.90
2016,06,16,13,23,16.00
2016,06,16,13,24,16.10
2016,06,16,13,25,16.20
2016,06,16,13,26,16.20
2016,06,16,13,27,16.10
2016,06,16,13,28,16.10
2016,06,16,13,29,16.10
2016,06,16,13,30,16.10
2016,06,16,13,31,16.10
2016,06,16,13,32,16.20
2016,06,16,13,33,16.20
2016,06,16,13,34,16.10
2016,06,16,13,35,16.10
2016,06,16,13,36,16.10
2016,06,16,13,37,16.00
2016,06,16,13,38,15.90
2016,06,16,13,39,15.90
2016,06,16,13,40,15.90
2016,06,16,13,41,15.90
2016,06,16,13,42,16.00
2016,06,16,13,43,16.20
2016,06,16,13,44,16.40
2016,06,16,13,45,16.40
2016,06,16,13,46,16.40
2016,06,16,13,47,16.40
2016,06,16,13,48,16.30
2016,06,16,13,49,16.30
2016,06,16,13,50,16.30
2016,06,16,13,51,16.30
2016,06,16,13,52,16.20
2016,06,16,13,53,16.30
2016,06,16,13,54,16.20
2016,06,16,13,55,16.10
2016,06,16,13,56,16.00
2016,06,16,13,57,16.20
2016,06,16,13,58,16.10
2016,06,16,13,59,16.10
2016,06,16,14,00,16.20
2016,06,16,14,01,16.40
2016,06,16,14,02,16.30
2016,06,16,14,03,16.30
2016,06,16,14,04,16.20
2016,06,16,14,05,16.10
2016,06,16,14,06,16.10
2016,06,16,14,07,15.90
2016,06,16,14,08,15.90
2016,06,16,14,09,15.80
2016,06,16,14,10,15.80
2016,06,16,14,11,15.80
2016,06,16,14,12,15.80
2016,06,16,14,13,15.70
2016,06,16,14,14,15.70
2016,06,16,14,15,15.70
2016,06,16,14,16,15.80
2016,06,16,14,17,16.00
2016,06,16,14,18,16.20
2016,06,16,14,19,16.30
2016,06,16,14,20,16.40
2016,06,16,14,21,16.30
2016,06,16,14,22,16.20
2016,06,16,14,23,15.90
2016,06,16,14,24,15.80
2016,06,16,14,25,15.70
2016,06,16,14,26,15.70
2016,06,16,14,27,15.70
2016,06,16,14,28,15.70
2016,06,16,14,29,15.70
2016,06,16,14,30,15.50
2016,06,16,14,31,15.50
2016,06,16,14,32,15.50
2016,06,16,14,33,15.50
2016,06,16,14,34,15.50
2016,06,16,14,35,15.40
2016,06,16,14,36,15.50
2016,06,16,14,37,15.60
2016,06,16,14,38,15.80
2016,06,16,14,39,15.90
2016,06,16,14,40,16.00
2016,06,16,14,41,16.10
2016,06,16,14,42,16.10
2016,06,16,14,43,16.10
2016,06,16,14,44,16.00
2016,06,16,14,45,15.90
2016,06,16,14,46,15.90
2016,06,16,14,47,15.90
2016,06,16,14,48,15.80
2016,06,16,14,49,15.80
2016,06,16,14,50,15.90
2016,06,16,14,51,16.00
2016,06,16,14,52,16.10
2016,06,16,14,53,16.10
2016,06,16,14,54,16.20
2016,06,16,14,55,16.30
2016,06,16,14,56,16.30
2016,06,16,14,57,16.30
2016,06,16,14,58,16.30
2016,06,16,14,59,16.20
2016,06,16,15,00,16.20
2016,06,16,15,01,16.20
2016,06,16,15,02,16.30
2016,06,16,15,03,16.30
2016,06,16,15,04,16.50
2016,06,16,15,05,16.60
2016,06,16,15,06,16.70
2016,06,16,15,07,16.70
2016,06,16,15,08,16.60
2016,06,16,15,09,16.40
2016,06,16,15,10,16.30
2016,06,16,15,11,16.30
2016,06,16,15,12,16.20
2016,06,16,15,13,16.30
2016,06,16,15,14,16.50
2016,06,16,15,15,16.60
2016,06,16,15,16,16.70
2016,06,16,15,17,16.60
2016,06,16,15,18,16.50
2016,06,16,15,19,16.60
2016,06,16,15,20,16.70
2016,06,16,15,21,16.50
2016,06,16,15,22,16.40
2016,06,16,15,23,16.40
2016,06,16,15,24,16.40
2016,06,16,15,25,16.30
2016,06,16,15,26,16.30
2016,06,16,15,27,16.30
2016,06,16,15,28,16.40
2016,06,16,15,29,16.30
2016,06,16,15,30,16.20
2016,06,16,15,31,16.10
2016,06,16,15,32,16.10
2016,06,16,15,33,16.10
2016,06,16,15,34,16.10
2016,06,16,15,35,16.20
2016,06,16,15,36,16.20
2016,06,16,15,37,16.20
2016,06,16,15,38,16.10
2016,06,16,15,39,16.00
2016,06,16,15,40,16.00
2016,06,16,15,41,15.90
2016,06,16,15,42,16.00
2016,06,16,15,43,16.10
2016,06,16,15,44,16.30
2016,06,16,15,45,16.40
2016,06,16,15,46,16.50
2016,06,16,15,47,16.70
2016,06,16,15,48,16.90
2016,06,16,15,49,17.00
2016,06,16,15,50,17.10
2016,06,16,15,51,17.10
2016,06,16,15,52,17.00
2016,06,16,15,53,16.90
2016,06,16,15,54,16.70
2016,06,16,15,55,16.70
2016,06,16,15,56,16.80
2016,06,16,15,57,16.60
2016,06,16,15,58,16.50
2016,06,16,15,59,16.50
2016,06,16,16,00,16.60
2016,06,16,16,01,16.70
2016,06,16,16,02,16.90
2016,06,16,16,03,16.90
2016,06,16,16,04,16.80
2016,06,16,16,05,16.80
2016,06,16,16,06,16.70
2016,06,16,16,07,16.60
2016,06,16,16,08,16.40
2016,06,16,16,09,16.40
2016,06,16,16,10,16.40
2016,06,16,16,11,16.40
2016,06,16,16,12,16.40
2016,06,16,16,13,16.40
2016,06,16,16,14,16.50
2016,06,16,16,15,16.60
2016,06,16,16,16,16.70
2016,06,16,16,17,16.70
2016,06,16,16,18,16.60
2016,06,16,16,19,16.50
2016,06,16,16,20,16.60
2016,06,16,16,21,16.60
2016,06,16,16,22,16.60
2016,06,16,16,23,16.70
2016,06,16,16,24,16.70
2016,06,16,16,25,16.70
2016,06,16,16,26,16.70
2016,06,16,16,27,16.70
2016,06,16,16,28,16.90
2016,06,16,16,29,17.00
2016,06,16,16,30,17.00
2016,06,16,16,31,16.90
2016,06,16,16,32,16.70
2016,06,16,16,33,16.50
2016,06,16,16,34,16.30
2016,06,16,16,35,16.10
2016,06,16,16,36,16.00
2016,06,16,16,37,16.00
2016,06,16,16,38,16.10
2016,06,16,16,39,16.10
2016,06,16,16,40,16.10
2016,06,16,16,41,16.00
2016,06,16,16,42,16.00
2016,06,16,16,43,16.10
2016,06,16,16,44,16.20
2016,06,16,16,45,16.20
2016,06,16,16,46,16.30
2016,06,16,16,47,16.30
2016,06,16,16,48,16.30
2016,06,16,16,49,16.30
2016,06,16,16,50,16.40
2016,06,16,16,51,16.40
2016,06,16,16,52,16.40
2016,06,16,16,53,16.40
2016,06,16,16,54,16.50
2016,06,16,16,55,16.60
2016,06,16,16,56,16.60
2016,06,16,16,57,16.50
2016,06,16,16,58,16.50
2016,06,16,16,59,16.50
2016,06,16,17,00,16.60
2016,06,16,17,01,16.80
2016,06,16,17,02,16.90
2016,06,16,17,03,16.90
2016,06,16,17,04,16.70
2016,06,16,17,05,16.50
2016,06,16,17,06,16.50
2016,06,16,17,07,16.60
2016,06,16,17,08,16.60
2016,06,16,17,09,16.70
2016,06,16,17,10,16.70
2016,06,16,17,11,16.60
2016,06,16,17,12,16.60
2016,06,16,17,13,16.60
2016,06,16,17,14,16.50
2016,06,16,17,15,16.40
2016,06,16,17,16,16.30
2016,06,16,17,17,16.30
2016,06,16,17,18,16.40
2016,06,16,17,19,16.40
2016,06,16,17,20,16.50
2016,06,16,17,21,16.60
2016,06,16,17,22,16.50
2016,06,16,17,23,16.50
2016,06,16,17,24,16.50
2016,06,16,17,25,16.50
2016,06,16,17,26,16.50
2016,06,16,17,27,16.50
2016,06,16,17,28,16.40
2016,06,16,17,29,16.40
2016,06,16,17,30,16.50
2016,06,16,17,31,16.50
2016,06,16,17,32,16.70
2016,06,16,17,33,16.80
2016,06,16,17,34,16.90
2016,06,16,17,35,16.80
2016,06,16,17,36,16.70